Volver al catálogo

STARLINK-34475

ActivoComunicacionesVLEO
NORAD 64603·PAYLOAD·🇺🇸 United States

Lanzado Jun 25, 2025 desde Cape Canaveral Space Force Station

Loading…

Próximos Pases (próximas 24 horas)

TLE

ActualizadoSource: CelesTrak SupGP

Época: Sep 15, 2026, 02:52 UTC

1 64603C 25137K   26258.11993056 -.00049782  00000+0 -15106-2 0  2588
2 64603  53.1580 173.0931 0001317  88.0643 119.3635 15.33572675    11

Sigue STARLINK-34475 en tiempo real con AllMySat

Download on the App Store